User: anonymous   Login
Location: Unspecified
(0.0000°N, 0.0000°E)
Time: 00:16:16
(UTC+00:00)
Language:

KMS 4 - Orbit

View from above orbital plane
View from above orbital plane
View from above satellite
View from above satellite

Ground track
Ground track

The orbit data is extracted from the following two-line orbital elements,

1 41332U 16009A   17231.46552363  .00002754  00000-0  94331-4 0  9999
2 41332  97.4531 289.8107 0025901 151.3687 208.8983 15.30778204 85500
Epoch (UTC): 19 August 2017 11:10:21
Eccentricity: 0.0025901
inclination: 97.4531°
perigee height: 456 km
apogee height: 491 km
right ascension of ascending node: 289.8107°
argument of perigee: 151.3687°
revolutions per day: 15.30778204
mean anomaly at epoch: 208.8983°
orbit number at epoch: 8550

The dashed part of the orbit path shows where the satellite is in the earth's shadow,  

DLR